LOCATION_NAME,SAMPLE COLLECTION TIME,DOSE EQUIVALENT RATE (nSv/h),GAMMA COUNT RATE R02 (CPM),GAMMA COUNT RATE R03 (CPM),GAMMA COUNT RATE R04 (CPM),GAMMA COUNT RATE R05 (CPM),GAMMA COUNT RATE R06 (CPM),GAMMA COUNT RATE R07 (CPM),GAMMA COUNT RATE R08 (CPM),GAMMA COUNT RATE R09 (CPM),STATUS
MI: GRAND RAPIDS,01/01/2014 00:16:00,,1630.00,966.00,287.00,133.00,83.00,98.00,54.00,24.00,APPROVED
MI: GRAND RAPIDS,01/01/2014 01:16:00,,1668.00,990.00,291.00,141.00,83.00,102.00,55.00,26.00,APPROVED
MI: GRAND RAPIDS,01/01/2014 02:16:00,,1688.00,1020.00,298.00,146.00,89.00,104.00,57.00,27.00,APPROVED
MI: GRAND RAPIDS,01/01/2014 03:17:00,,1660.00,1005.00,300.00,144.00,89.00,107.00,57.00,27.00,APPROVED
MI: GRAND RAPIDS,01/01/2014 04:17:00,,1643.00,975.00,289.00,136.00,86.00,101.00,56.00,26.00,APPROVED
MI: GRAND RAPIDS,01/01/2014 05:17:00,,1614.00,957.00,283.00,134.00,80.00,97.00,54.00,26.00,APPROVED
MI: GRAND RAPIDS,01/01/2014 06:17:00,,1607.00,948.00,276.00,130.00,83.00,96.00,53.00,26.00,APPROVED
MI: GRAND RAPIDS,01/01/2014 07:18:00,,1597.00,934.00,275.00,131.00,80.00,94.00,54.00,26.00,APPROVED
MI: GRAND RAPIDS,01/01/2014 08:18:00,,1590.00,929.00,272.00,129.00,80.00,94.00,52.00,24.00,APPROVED
MI: GRAND RAPIDS,01/01/2014 09:18:00,,1596.00,937.00,275.00,131.00,82.00,94.00,52.00,25.00,APPROVED
MI: GRAND RAPIDS,01/01/2014 10:18:00,,1597.00,925.00,272.00,127.00,80.00,93.00,52.00,25.00,APPROVED
MI: GRAND RAPIDS,01/01/2014 11:18:00,,1598.00,931.00,270.00,129.00,80.00,93.00,54.00,25.00,APPROVED
MI: GRAND RAPIDS,01/01/2014 12:19:00,,1608.00,930.00,272.00,127.00,80.00,91.00,52.00,26.00,APPROVED
MI: GRAND RAPIDS,01/01/2014 13:19:00,,1597.00,933.00,269.00,128.00,78.00,92.00,53.00,25.00,APPROVED
MI: GRAND RAPIDS,01/01/2014 14:19:00,,1597.00,928.00,272.00,128.00,81.00,94.00,54.00,26.00,APPROVED
MI: GRAND RAPIDS,01/01/2014 15:19:00,,1599.00,926.00,274.00,131.00,79.00,94.00,54.00,25.00,APPROVED
MI: GRAND RAPIDS,01/01/2014 16:20:00,,1592.00,930.00,270.00,130.00,80.00,94.00,54.00,25.00,APPROVED
MI: GRAND RAPIDS,01/01/2014 17:20:00,,1589.00,935.00,272.00,127.00,80.00,95.00,53.00,25.00,APPROVED
MI: GRAND RAPIDS,01/01/2014 18:20:00,,1604.00,936.00,270.00,128.00,77.00,96.00,52.00,26.00,APPROVED
MI: GRAND RAPIDS,01/01/2014 19:20:00,,1687.00,1012.00,296.00,145.00,87.00,105.00,58.00,27.00,APPROVED
MI: GRAND RAPIDS,01/01/2014 20:20:00,,1724.00,1044.00,307.00,153.00,88.00,109.00,59.00,28.00,APPROVED
MI: GRAND RAPIDS,01/01/2014 21:21:00,,1722.00,1040.00,307.00,151.00,89.00,109.00,58.00,26.00,APPROVED
MI: GRAND RAPIDS,01/01/2014 22:21:00,,1707.00,1025.00,301.00,146.00,90.00,106.00,59.00,25.00,APPROVED
MI: GRAND RAPIDS,01/01/2014 23:21:00,,1707.00,1020.00,306.00,145.00,88.00,105.00,58.00,26.00,APPROVED
MI: GRAND RAPIDS,01/02/2014 00:21:00,,1657.00,984.00,293.00,139.00,84.00,102.00,55.00,26.00,APPROVED
MI: GRAND RAPIDS,01/02/2014 01:21:00,,1625.00,955.00,281.00,133.00,82.00,99.00,54.00,25.00,APPROVED
MI: GRAND RAPIDS,01/02/2014 02:22:00,,1606.00,940.00,275.00,130.00,80.00,94.00,55.00,26.00,APPROVED
MI: GRAND RAPIDS,01/02/2014 03:22:00,,1579.00,918.00,272.00,127.00,80.00,92.00,52.00,25.00,APPROVED
MI: GRAND RAPIDS,01/02/2014 04:22:00,,1588.00,925.00,271.00,128.00,77.00,94.00,53.00,25.00,APPROVED
MI: GRAND RAPIDS,01/02/2014 05:22:00,,1595.00,931.00,273.00,129.00,80.00,92.00,52.00,25.00,APPROVED
MI: GRAND RAPIDS,01/02/2014 06:23:00,,1588.00,932.00,269.00,130.00,80.00,92.00,54.00,25.00,APPROVED
MI: GRAND RAPIDS,01/02/2014 07:23:00,,1593.00,928.00,272.00,127.00,78.00,93.00,52.00,25.00,APPROVED
MI: GRAND RAPIDS,01/02/2014 08:23:00,,1580.00,927.00,270.00,127.00,79.00,95.00,51.00,26.00,APPROVED
MI: GRAND RAPIDS,01/02/2014 09:23:00,,1577.00,925.00,274.00,128.00,80.00,94.00,51.00,23.00,APPROVED
MI: GRAND RAPIDS,01/02/2014 10:23:00,,1580.00,920.00,270.00,131.00,78.00,92.00,51.00,26.00,APPROVED
MI: GRAND RAPIDS,01/02/2014 11:24:00,,1589.00,928.00,273.00,129.00,80.00,93.00,52.00,24.00,APPROVED
MI: GRAND RAPIDS,01/02/2014 12:24:00,,1580.00,920.00,266.00,128.00,78.00,93.00,52.00,25.00,APPROVED
MI: GRAND RAPIDS,01/02/2014 13:24:00,,1582.00,921.00,267.00,128.00,80.00,93.00,53.00,25.00,APPROVED
MI: GRAND RAPIDS,01/02/2014 14:24:00,,1579.00,927.00,272.00,131.00,78.00,92.00,53.00,27.00,APPROVED
MI: GRAND RAPIDS,01/02/2014 15:25:00,,1581.00,927.00,269.00,130.00,80.00,92.00,52.00,25.00,APPROVED
MI: GRAND RAPIDS,01/02/2014 16:25:00,,1567.00,918.00,270.00,127.00,78.00,93.00,53.00,25.00,APPROVED
MI: GRAND RAPIDS,01/02/2014 17:25:00,,1574.00,919.00,266.00,128.00,78.00,92.00,50.00,24.00,APPROVED
MI: GRAND RAPIDS,01/02/2014 18:25:00,,1570.00,912.00,264.00,128.00,78.00,93.00,52.00,25.00,APPROVED
MI: GRAND RAPIDS,01/02/2014 19:25:00,,1565.00,901.00,267.00,128.00,78.00,93.00,51.00,25.00,APPROVED
MI: GRAND RAPIDS,01/02/2014 20:26:00,,1561.00,899.00,268.00,123.00,79.00,92.00,50.00,25.00,APPROVED
MI: GRAND RAPIDS,01/02/2014 21:26:00,,1561.00,908.00,267.00,125.00,77.00,92.00,51.00,26.00,APPROVED
MI: GRAND RAPIDS,01/02/2014 22:26:00,,1570.00,913.00,267.00,126.00,78.00,91.00,51.00,25.00,APPROVED
MI: GRAND RAPIDS,01/02/2014 23:26:00,,1568.00,908.00,266.00,126.00,78.00,92.00,52.00,25.00,APPROVED
MI: GRAND RAPIDS,01/03/2014 00:26:00,,1574.00,910.00,266.00,125.00,77.00,90.00,52.00,24.00,APPROVED
MI: GRAND RAPIDS,01/03/2014 01:27:00,,1580.00,907.00,268.00,122.00,79.00,91.00,50.00,25.00,APPROVED
MI: GRAND RAPIDS,01/03/2014 02:27:00,,1581.00,902.00,264.00,126.00,76.00,91.00,51.00,25.00,APPROVED
MI: GRAND RAPIDS,01/03/2014 03:27:00,,1583.00,915.00,265.00,128.00,79.00,91.00,53.00,25.00,APPROVED
MI: GRAND RAPIDS,01/03/2014 04:27:00,,1601.00,916.00,265.00,126.00,77.00,91.00,51.00,25.00,APPROVED
MI: GRAND RAPIDS,01/03/2014 05:28:00,,1596.00,922.00,268.00,127.00,79.00,90.00,54.00,25.00,APPROVED
MI: GRAND RAPIDS,01/03/2014 06:28:00,,1588.00,921.00,268.00,129.00,78.00,92.00,52.00,25.00,APPROVED
MI: GRAND RAPIDS,01/03/2014 07:28:00,,1607.00,929.00,273.00,131.00,81.00,93.00,54.00,24.00,APPROVED
MI: GRAND RAPIDS,01/03/2014 08:28:00,,1615.00,949.00,275.00,134.00,82.00,93.00,55.00,26.00,APPROVED
MI: GRAND RAPIDS,01/03/2014 09:28:00,,1619.00,957.00,278.00,137.00,81.00,94.00,56.00,26.00,APPROVED
MI: GRAND RAPIDS,01/03/2014 10:29:00,,1633.00,964.00,283.00,138.00,83.00,98.00,55.00,26.00,APPROVED
MI: GRAND RAPIDS,01/03/2014 11:30:00,,1635.00,970.00,282.00,139.00,83.00,98.00,57.00,26.00,APPROVED
MI: GRAND RAPIDS,01/03/2014 12:30:00,,1642.00,975.00,282.00,140.00,85.00,98.00,56.00,27.00,APPROVED
MI: GRAND RAPIDS,01/03/2014 13:30:00,,1616.00,947.00,280.00,136.00,83.00,95.00,56.00,25.00,APPROVED
MI: GRAND RAPIDS,01/03/2014 14:31:00,,1599.00,930.00,272.00,131.00,80.00,93.00,55.00,26.00,APPROVED
MI: GRAND RAPIDS,01/03/2014 15:31:00,,1590.00,918.00,266.00,128.00,80.00,92.00,53.00,25.00,APPROVED
MI: GRAND RAPIDS,01/03/2014 16:31:00,,1567.00,906.00,262.00,127.00,78.00,91.00,49.00,24.00,APPROVED
MI: GRAND RAPIDS,01/03/2014 17:31:00,,1570.00,898.00,265.00,123.00,77.00,90.00,50.00,25.00,APPROVED
MI: GRAND RAPIDS,01/03/2014 18:31:00,,1541.00,901.00,259.00,126.00,78.00,90.00,50.00,25.00,APPROVED
MI: GRAND RAPIDS,01/03/2014 19:32:00,,1533.00,887.00,265.00,120.00,78.00,91.00,50.00,24.00,APPROVED
MI: GRAND RAPIDS,01/03/2014 20:25:00,,1537.00,879.00,262.00,124.00,78.00,89.00,49.00,24.00,APPROVED
MI: GRAND RAPIDS,01/03/2014 21:32:00,,1531.00,884.00,259.00,120.00,76.00,89.00,49.00,24.00,APPROVED
MI: GRAND RAPIDS,01/03/2014 22:32:00,,1547.00,889.00,260.00,124.00,76.00,89.00,49.00,24.00,APPROVED
MI: GRAND RAPIDS,01/03/2014 23:33:00,,1559.00,900.00,264.00,124.00,77.00,91.00,50.00,24.00,APPROVED
MI: GRAND RAPIDS,01/04/2014 00:33:00,,1574.00,913.00,267.00,124.00,79.00,91.00,51.00,25.00,APPROVED
MI: GRAND RAPIDS,01/04/2014 01:33:00,,1595.00,920.00,270.00,128.00,79.00,92.00,51.00,25.00,APPROVED
MI: GRAND RAPIDS,01/04/2014 02:33:00,,1585.00,927.00,271.00,127.00,78.00,94.00,52.00,26.00,APPROVED
MI: GRAND RAPIDS,01/04/2014 03:34:00,,1603.00,931.00,272.00,130.00,82.00,94.00,51.00,25.00,APPROVED
MI: GRAND RAPIDS,01/04/2014 04:34:00,,1602.00,935.00,272.00,130.00,81.00,95.00,53.00,25.00,APPROVED
MI: GRAND RAPIDS,01/04/2014 05:34:00,,1612.00,944.00,274.00,132.00,82.00,95.00,53.00,26.00,APPROVED
MI: GRAND RAPIDS,01/04/2014 06:34:00,,1611.00,953.00,277.00,133.00,81.00,97.00,52.00,26.00,APPROVED
MI: GRAND RAPIDS,01/04/2014 07:34:00,,1605.00,944.00,277.00,135.00,79.00,99.00,54.00,25.00,APPROVED
MI: GRAND RAPIDS,01/04/2014 08:35:00,,1601.00,954.00,279.00,131.00,82.00,97.00,53.00,26.00,APPROVED
MI: GRAND RAPIDS,01/04/2014 09:35:00,,1606.00,951.00,280.00,132.00,80.00,97.00,53.00,26.00,APPROVED
MI: GRAND RAPIDS,01/04/2014 10:35:00,,1618.00,951.00,279.00,133.00,81.00,98.00,53.00,25.00,APPROVED
MI: GRAND RAPIDS,01/04/2014 11:35:00,,1615.00,956.00,279.00,138.00,86.00,99.00,54.00,26.00,APPROVED
MI: GRAND RAPIDS,01/04/2014 12:35:00,,1607.00,954.00,276.00,135.00,82.00,100.00,52.00,24.00,APPROVED
MI: GRAND RAPIDS,01/04/2014 13:36:00,,1608.00,951.00,282.00,135.00,83.00,101.00,51.00,25.00,APPROVED
MI: GRAND RAPIDS,01/04/2014 14:36:00,,1605.00,953.00,282.00,134.00,83.00,100.00,54.00,26.00,APPROVED
MI: GRAND RAPIDS,01/04/2014 15:36:00,,1599.00,955.00,279.00,132.00,83.00,101.00,51.00,26.00,APPROVED
MI: GRAND RAPIDS,01/04/2014 16:36:00,,1586.00,952.00,281.00,139.00,84.00,101.00,54.00,26.00,APPROVED
MI: GRAND RAPIDS,01/04/2014 17:37:00,,1588.00,968.00,287.00,142.00,86.00,102.00,58.00,26.00,APPROVED
MI: GRAND RAPIDS,01/04/2014 18:37:00,,1617.00,1006.00,295.00,151.00,89.00,108.00,60.00,27.00,APPROVED
MI: GRAND RAPIDS,01/04/2014 19:37:00,,1738.00,1100.00,325.00,167.00,95.00,116.00,64.00,29.00,APPROVED
MI: GRAND RAPIDS,01/04/2014 20:37:00,,1821.00,1165.00,344.00,182.00,100.00,126.00,68.00,30.00,APPROVED
MI: GRAND RAPIDS,01/04/2014 21:37:00,,1805.00,1167.00,343.00,188.00,103.00,128.00,73.00,32.00,APPROVED
MI: GRAND RAPIDS,01/04/2014 22:38:00,,1752.00,1138.00,336.00,184.00,99.00,122.00,71.00,31.00,APPROVED
MI: GRAND RAPIDS,01/04/2014 23:38:00,,1727.00,1123.00,331.00,181.00,98.00,120.00,70.00,32.00,APPROVED
MI: GRAND RAPIDS,01/05/2014 00:38:00,,1763.00,1171.00,340.00,192.00,102.00,132.00,72.00,32.00,APPROVED
MI: GRAND RAPIDS,01/05/2014 01:38:00,,1781.00,1174.00,347.00,191.00,105.00,129.00,71.00,33.00,APPROVED
MI: GRAND RAPIDS,01/05/2014 02:39:00,,1800.00,1193.00,353.00,200.00,105.00,130.00,76.00,33.00,APPROVED
MI: GRAND RAPIDS,01/05/2014 03:39:00,,1801.00,1190.00,356.00,199.00,106.00,131.00,74.00,33.00,APPROVED
MI: GRAND RAPIDS,01/05/2014 04:39:00,,1714.00,1114.00,333.00,179.00,100.00,122.00,70.00,31.00,APPROVED
MI: GRAND RAPIDS,01/05/2014 05:39:00,,1603.00,1024.00,306.00,164.00,92.00,112.00,63.00,29.00,APPROVED
MI: GRAND RAPIDS,01/05/2014 06:39:00,,1584.00,1014.00,300.00,160.00,92.00,106.00,65.00,30.00,APPROVED
MI: GRAND RAPIDS,01/05/2014 07:40:00,,1594.00,1008.00,301.00,164.00,91.00,111.00,65.00,29.00,APPROVED
MI: GRAND RAPIDS,01/05/2014 08:40:00,,1730.00,1134.00,337.00,187.00,100.00,124.00,70.00,31.00,APPROVED
MI: GRAND RAPIDS,01/05/2014 09:40:00,,1999.00,1405.00,415.00,242.00,121.00,156.00,89.00,39.00,APPROVED
MI: GRAND RAPIDS,01/05/2014 10:40:00,,1905.00,1319.00,390.00,235.00,118.00,151.00,83.00,38.00,APPROVED
MI: GRAND RAPIDS,01/05/2014 11:40:00,,1901.00,1319.00,386.00,232.00,116.00,150.00,83.00,38.00,APPROVED
MI: GRAND RAPIDS,01/05/2014 12:41:00,,1907.00,1340.00,382.00,237.00,118.00,154.00,83.00,39.00,APPROVED
MI: GRAND RAPIDS,01/05/2014 13:41:00,,1821.00,1265.00,364.00,221.00,111.00,142.00,79.00,36.00,APPROVED
MI: GRAND RAPIDS,01/05/2014 14:41:00,,1731.00,1159.00,338.00,195.00,101.00,130.00,72.00,32.00,APPROVED
MI: GRAND RAPIDS,01/05/2014 15:41:00,,1684.00,1107.00,327.00,183.00,97.00,122.00,69.00,30.00,APPROVED
MI: GRAND RAPIDS,01/05/2014 16:42:00,,1815.00,1215.00,356.00,202.00,102.00,134.00,73.00,33.00,APPROVED
MI: GRAND RAPIDS,01/05/2014 17:42:00,,1861.00,1251.00,368.00,206.00,109.00,141.00,77.00,34.00,APPROVED
MI: GRAND RAPIDS,01/05/2014 18:42:00,,1849.00,1227.00,362.00,199.00,104.00,137.00,73.00,32.00,APPROVED
MI: GRAND RAPIDS,01/05/2014 19:42:00,,1911.00,1283.00,379.00,207.00,109.00,139.00,77.00,33.00,APPROVED
MI: GRAND RAPIDS,01/05/2014 20:42:00,,1934.00,1294.00,378.00,210.00,109.00,141.00,77.00,35.00,APPROVED
MI: GRAND RAPIDS,01/05/2014 21:43:00,,1885.00,1249.00,369.00,205.00,107.00,135.00,73.00,33.00,APPROVED
MI: GRAND RAPIDS,01/05/2014 22:43:00,,1843.00,1210.00,356.00,194.00,103.00,130.00,71.00,31.00,APPROVED
MI: GRAND RAPIDS,01/05/2014 23:43:00,,1839.00,1199.00,355.00,190.00,99.00,129.00,69.00,31.00,APPROVED
MI: GRAND RAPIDS,01/06/2014 00:43:00,,1761.00,1130.00,336.00,172.00,97.00,124.00,65.00,30.00,APPROVED
MI: GRAND RAPIDS,01/06/2014 01:44:00,,1716.00,1078.00,319.00,165.00,93.00,116.00,63.00,29.00,APPROVED
MI: GRAND RAPIDS,01/06/2014 02:44:00,,1672.00,1034.00,311.00,154.00,89.00,109.00,60.00,27.00,APPROVED
MI: GRAND RAPIDS,01/06/2014 03:44:00,,1651.00,1013.00,304.00,152.00,87.00,104.00,57.00,25.00,APPROVED
MI: GRAND RAPIDS,01/06/2014 04:44:00,,1613.00,976.00,297.00,145.00,84.00,104.00,57.00,27.00,APPROVED
MI: GRAND RAPIDS,01/06/2014 05:44:00,,1573.00,951.00,286.00,136.00,81.00,100.00,54.00,25.00,APPROVED
MI: GRAND RAPIDS,01/06/2014 06:45:00,,1524.00,914.00,270.00,133.00,79.00,96.00,53.00,25.00,APPROVED
MI: GRAND RAPIDS,01/06/2014 07:45:00,,1494.00,882.00,262.00,124.00,76.00,89.00,51.00,25.00,APPROVED
MI: GRAND RAPIDS,01/06/2014 08:45:00,,1479.00,862.00,258.00,120.00,73.00,88.00,49.00,24.00,APPROVED
MI: GRAND RAPIDS,01/06/2014 09:45:00,,1471.00,848.00,248.00,116.00,74.00,87.00,49.00,24.00,APPROVED
MI: GRAND RAPIDS,01/06/2014 10:46:00,,1468.00,848.00,249.00,118.00,75.00,86.00,48.00,24.00,APPROVED
MI: GRAND RAPIDS,01/06/2014 11:46:00,,1505.00,878.00,256.00,123.00,74.00,88.00,49.00,25.00,APPROVED
MI: GRAND RAPIDS,01/06/2014 12:46:00,,1535.00,904.00,266.00,125.00,75.00,90.00,51.00,23.00,APPROVED
MI: GRAND RAPIDS,01/06/2014 13:46:00,,1571.00,925.00,269.00,129.00,77.00,91.00,51.00,26.00,APPROVED
MI: GRAND RAPIDS,01/06/2014 14:46:00,,1594.00,948.00,275.00,133.00,80.00,94.00,55.00,26.00,APPROVED
MI: GRAND RAPIDS,01/06/2014 15:47:00,,1585.00,940.00,269.00,135.00,77.00,93.00,52.00,26.00,APPROVED
MI: GRAND RAPIDS,01/06/2014 16:47:00,,1574.00,927.00,266.00,131.00,77.00,94.00,52.00,27.00,APPROVED
MI: GRAND RAPIDS,01/06/2014 17:47:00,,1560.00,907.00,270.00,130.00,77.00,93.00,52.00,26.00,APPROVED
MI: GRAND RAPIDS,01/06/2014 18:47:00,,1549.00,897.00,262.00,126.00,76.00,90.00,50.00,24.00,APPROVED
MI: GRAND RAPIDS,01/06/2014 19:47:00,,1539.00,892.00,263.00,125.00,75.00,88.00,52.00,25.00,APPROVED
MI: GRAND RAPIDS,01/06/2014 20:48:00,,1546.00,895.00,264.00,125.00,75.00,88.00,50.00,25.00,APPROVED
MI: GRAND RAPIDS,01/06/2014 21:48:00,,1560.00,905.00,264.00,125.00,75.00,92.00,53.00,26.00,APPROVED
MI: GRAND RAPIDS,01/06/2014 22:48:00,,1545.00,892.00,256.00,126.00,76.00,88.00,52.00,25.00,APPROVED
MI: GRAND RAPIDS,01/06/2014 23:48:00,,1553.00,900.00,266.00,127.00,76.00,94.00,52.00,25.00,APPROVED
MI: GRAND RAPIDS,01/07/2014 00:49:00,,1587.00,931.00,267.00,132.00,78.00,95.00,54.00,26.00,APPROVED
MI: GRAND RAPIDS,01/07/2014 01:49:00,,1585.00,923.00,272.00,133.00,77.00,93.00,53.00,26.00,APPROVED
MI: GRAND RAPIDS,01/07/2014 02:49:00,,1577.00,920.00,270.00,130.00,77.00,93.00,52.00,26.00,APPROVED
MI: GRAND RAPIDS,01/07/2014 03:49:00,,1590.00,924.00,270.00,134.00,78.00,92.00,54.00,25.00,APPROVED
MI: GRAND RAPIDS,01/07/2014 04:49:00,,1584.00,925.00,267.00,130.00,76.00,92.00,52.00,25.00,APPROVED
MI: GRAND RAPIDS,01/07/2014 05:50:00,,1579.00,925.00,267.00,131.00,77.00,92.00,52.00,25.00,APPROVED
MI: GRAND RAPIDS,01/07/2014 06:50:00,,1562.00,918.00,267.00,129.00,78.00,90.00,51.00,26.00,APPROVED
MI: GRAND RAPIDS,01/07/2014 07:50:00,,1582.00,930.00,269.00,128.00,79.00,91.00,51.00,25.00,APPROVED
MI: GRAND RAPIDS,01/07/2014 08:50:00,,1585.00,930.00,273.00,134.00,78.00,94.00,54.00,25.00,APPROVED
MI: GRAND RAPIDS,01/07/2014 09:51:00,,1583.00,917.00,268.00,134.00,78.00,93.00,52.00,25.00,APPROVED
MI: GRAND RAPIDS,01/07/2014 10:51:00,,1563.00,914.00,263.00,130.00,75.00,92.00,53.00,25.00,APPROVED
MI: GRAND RAPIDS,01/07/2014 11:51:00,,1556.00,907.00,261.00,128.00,76.00,90.00,52.00,26.00,APPROVED
MI: GRAND RAPIDS,01/07/2014 12:51:00,,1539.00,896.00,260.00,127.00,76.00,88.00,52.00,24.00,APPROVED
MI: GRAND RAPIDS,01/07/2014 13:51:00,,1531.00,878.00,250.00,123.00,73.00,86.00,50.00,25.00,APPROVED
MI: GRAND RAPIDS,01/07/2014 14:52:00,,1496.00,871.00,250.00,120.00,71.00,86.00,50.00,23.00,APPROVED
MI: GRAND RAPIDS,01/07/2014 15:52:00,,1510.00,869.00,252.00,118.00,76.00,87.00,49.00,25.00,APPROVED
MI: GRAND RAPIDS,01/07/2014 16:52:00,,1508.00,860.00,251.00,122.00,75.00,87.00,50.00,24.00,APPROVED
MI: GRAND RAPIDS,01/07/2014 17:52:00,,1518.00,869.00,254.00,120.00,75.00,86.00,49.00,25.00,APPROVED
MI: GRAND RAPIDS,01/07/2014 18:52:00,,1516.00,874.00,255.00,125.00,74.00,88.00,50.00,24.00,APPROVED
MI: GRAND RAPIDS,01/07/2014 19:53:00,,1481.00,854.00,252.00,118.00,72.00,85.00,50.00,25.00,APPROVED
MI: GRAND RAPIDS,01/07/2014 20:53:00,,1472.00,841.00,248.00,119.00,70.00,86.00,48.00,23.00,APPROVED
MI: GRAND RAPIDS,01/07/2014 21:53:00,,1461.00,847.00,250.00,119.00,71.00,85.00,47.00,24.00,APPROVED
MI: GRAND RAPIDS,01/07/2014 22:53:00,,1471.00,838.00,247.00,118.00,72.00,84.00,48.00,23.00,APPROVED
MI: GRAND RAPIDS,01/07/2014 23:54:00,,1482.00,842.00,245.00,118.00,69.00,84.00,48.00,25.00,APPROVED
MI: GRAND RAPIDS,01/08/2014 00:54:00,,1508.00,868.00,252.00,121.00,73.00,86.00,48.00,24.00,APPROVED
MI: GRAND RAPIDS,01/08/2014 01:54:00,,1519.00,877.00,259.00,122.00,73.00,88.00,50.00,25.00,APPROVED
MI: GRAND RAPIDS,01/08/2014 02:54:00,,1541.00,895.00,260.00,127.00,76.00,87.00,49.00,24.00,APPROVED
MI: GRAND RAPIDS,01/08/2014 03:54:00,,1541.00,891.00,260.00,126.00,76.00,90.00,52.00,25.00,APPROVED
MI: GRAND RAPIDS,01/08/2014 04:55:00,,1542.00,908.00,264.00,131.00,77.00,93.00,51.00,25.00,APPROVED
MI: GRAND RAPIDS,01/08/2014 05:55:00,,1540.00,910.00,267.00,130.00,78.00,92.00,52.00,25.00,APPROVED
MI: GRAND RAPIDS,01/08/2014 06:55:00,,1553.00,920.00,271.00,132.00,79.00,94.00,51.00,25.00,APPROVED
MI: GRAND RAPIDS,01/08/2014 07:55:00,,1561.00,922.00,271.00,134.00,77.00,95.00,50.00,25.00,APPROVED
MI: GRAND RAPIDS,01/08/2014 08:56:00,,1547.00,915.00,268.00,132.00,77.00,93.00,52.00,25.00,APPROVED
MI: GRAND RAPIDS,01/08/2014 09:56:00,,1532.00,915.00,265.00,132.00,76.00,92.00,51.00,25.00,APPROVED
MI: GRAND RAPIDS,01/08/2014 10:56:00,,1534.00,897.00,262.00,128.00,74.00,91.00,50.00,24.00,APPROVED
MI: GRAND RAPIDS,01/08/2014 11:56:00,,1511.00,879.00,257.00,126.00,75.00,91.00,50.00,25.00,APPROVED
MI: GRAND RAPIDS,01/08/2014 12:56:00,,1516.00,878.00,257.00,128.00,74.00,91.00,50.00,23.00,APPROVED
MI: GRAND RAPIDS,01/08/2014 13:57:00,,1507.00,879.00,256.00,125.00,77.00,90.00,50.00,24.00,APPROVED
MI: GRAND RAPIDS,01/08/2014 14:57:00,,1507.00,881.00,252.00,123.00,73.00,89.00,50.00,24.00,APPROVED
MI: GRAND RAPIDS,01/08/2014 15:57:00,,1491.00,871.00,253.00,126.00,74.00,87.00,48.00,25.00,APPROVED
MI: GRAND RAPIDS,01/08/2014 16:57:00,,1480.00,869.00,257.00,125.00,74.00,90.00,49.00,24.00,APPROVED
MI: GRAND RAPIDS,01/08/2014 17:58:00,,1462.00,863.00,255.00,123.00,76.00,93.00,49.00,24.00,APPROVED
MI: GRAND RAPIDS,01/08/2014 18:58:00,,1451.00,856.00,253.00,121.00,73.00,92.00,47.00,25.00,APPROVED
MI: GRAND RAPIDS,01/08/2014 19:58:00,,1428.00,832.00,250.00,119.00,73.00,88.00,47.00,22.00,APPROVED
MI: GRAND RAPIDS,01/08/2014 20:58:00,,1412.00,818.00,247.00,117.00,71.00,83.00,46.00,23.00,APPROVED
MI: GRAND RAPIDS,01/08/2014 21:58:00,,1413.00,814.00,243.00,116.00,71.00,82.00,47.00,23.00,APPROVED
MI: GRAND RAPIDS,01/08/2014 22:59:00,,1425.00,825.00,245.00,115.00,72.00,84.00,45.00,24.00,APPROVED
MI: GRAND RAPIDS,01/08/2014 23:59:00,,1430.00,835.00,248.00,114.00,72.00,85.00,46.00,24.00,APPROVED
MI: GRAND RAPIDS,01/09/2014 00:59:00,,1455.00,833.00,245.00,118.00,70.00,85.00,46.00,24.00,APPROVED
MI: GRAND RAPIDS,01/09/2014 01:59:00,,1445.00,837.00,245.00,117.00,74.00,86.00,46.00,23.00,APPROVED
MI: GRAND RAPIDS,01/09/2014 02:59:00,,1451.00,844.00,247.00,116.00,73.00,87.00,49.00,23.00,APPROVED
MI: GRAND RAPIDS,01/09/2014 04:00:00,,1450.00,848.00,252.00,120.00,73.00,87.00,46.00,23.00,APPROVED
MI: GRAND RAPIDS,01/09/2014 05:00:00,,1449.00,842.00,252.00,120.00,71.00,87.00,47.00,24.00,APPROVED
MI: GRAND RAPIDS,01/09/2014 06:00:00,,1461.00,845.00,252.00,120.00,73.00,86.00,46.00,24.00,APPROVED
MI: GRAND RAPIDS,01/09/2014 07:00:00,,1453.00,847.00,251.00,121.00,73.00,88.00,48.00,24.00,APPROVED
MI: GRAND RAPIDS,01/09/2014 08:01:00,,1459.00,859.00,252.00,120.00,75.00,86.00,48.00,24.00,APPROVED
MI: GRAND RAPIDS,01/09/2014 09:01:00,,1471.00,861.00,254.00,124.00,72.00,88.00,49.00,24.00,APPROVED
MI: GRAND RAPIDS,01/09/2014 10:01:00,,1480.00,863.00,253.00,123.00,72.00,87.00,50.00,23.00,APPROVED
MI: GRAND RAPIDS,01/09/2014 11:01:00,,1476.00,855.00,254.00,125.00,73.00,87.00,50.00,25.00,APPROVED
MI: GRAND RAPIDS,01/09/2014 12:01:00,,1470.00,862.00,254.00,124.00,74.00,87.00,50.00,24.00,APPROVED
MI: GRAND RAPIDS,01/09/2014 13:02:00,,1468.00,867.00,254.00,125.00,75.00,91.00,50.00,25.00,APPROVED
MI: GRAND RAPIDS,01/09/2014 14:02:00,,1478.00,867.00,258.00,127.00,74.00,91.00,51.00,24.00,APPROVED
MI: GRAND RAPIDS,01/09/2014 15:02:00,,1465.00,876.00,258.00,128.00,76.00,93.00,50.00,24.00,APPROVED
MI: GRAND RAPIDS,01/09/2014 16:20:00,,1430.00,821.00,240.00,114.00,70.00,83.00,45.00,23.00,APPROVED
MI: GRAND RAPIDS,01/09/2014 17:21:00,,1425.00,831.00,247.00,116.00,71.00,85.00,47.00,24.00,APPROVED
MI: GRAND RAPIDS,01/09/2014 18:21:00,,1419.00,819.00,246.00,115.00,71.00,88.00,46.00,24.00,APPROVED
MI: GRAND RAPIDS,01/09/2014 19:21:00,,1415.00,824.00,251.00,118.00,72.00,87.00,46.00,24.00,APPROVED
MI: GRAND RAPIDS,01/09/2014 20:21:00,,1420.00,835.00,250.00,120.00,73.00,85.00,46.00,23.00,APPROVED
MI: GRAND RAPIDS,01/09/2014 21:22:00,,1439.00,842.00,251.00,120.00,75.00,89.00,46.00,24.00,APPROVED
MI: GRAND RAPIDS,01/09/2014 22:22:00,,1477.00,874.00,257.00,126.00,76.00,91.00,48.00,25.00,APPROVED
MI: GRAND RAPIDS,01/09/2014 23:22:00,,1491.00,886.00,264.00,127.00,76.00,96.00,51.00,26.00,APPROVED
MI: GRAND RAPIDS,01/10/2014 00:22:00,,1495.00,882.00,261.00,128.00,78.00,95.00,48.00,24.00,APPROVED
MI: GRAND RAPIDS,01/10/2014 01:22:00,,1484.00,882.00,265.00,130.00,77.00,91.00,49.00,24.00,APPROVED
MI: GRAND RAPIDS,01/10/2014 02:23:00,,1509.00,899.00,263.00,130.00,76.00,95.00,50.00,26.00,APPROVED
MI: GRAND RAPIDS,01/10/2014 03:23:00,,1530.00,920.00,277.00,132.00,79.00,98.00,51.00,24.00,APPROVED
MI: GRAND RAPIDS,01/10/2014 04:23:00,,1561.00,949.00,287.00,138.00,81.00,101.00,54.00,26.00,APPROVED
MI: GRAND RAPIDS,01/10/2014 05:23:00,,1580.00,984.00,292.00,147.00,84.00,105.00,55.00,27.00,APPROVED
MI: GRAND RAPIDS,01/10/2014 06:24:00,,1595.00,1012.00,306.00,154.00,87.00,113.00,59.00,28.00,APPROVED
MI: GRAND RAPIDS,01/10/2014 07:24:00,,1628.00,1062.00,315.00,166.00,93.00,120.00,61.00,28.00,APPROVED
MI: GRAND RAPIDS,01/10/2014 08:24:00,,1648.00,1104.00,333.00,177.00,95.00,126.00,65.00,29.00,APPROVED
MI: GRAND RAPIDS,01/10/2014 09:24:00,,1657.00,1127.00,337.00,190.00,100.00,132.00,70.00,32.00,APPROVED
MI: GRAND RAPIDS,01/10/2014 10:24:00,,1652.00,1144.00,337.00,194.00,102.00,134.00,72.00,32.00,APPROVED
MI: GRAND RAPIDS,01/10/2014 11:25:00,,1669.00,1157.00,346.00,203.00,102.00,137.00,75.00,33.00,APPROVED
MI: GRAND RAPIDS,01/10/2014 12:25:00,,1669.00,1186.00,349.00,213.00,107.00,141.00,78.00,34.00,APPROVED
MI: GRAND RAPIDS,01/10/2014 13:25:00,,1673.00,1197.00,355.00,223.00,113.00,146.00,78.00,35.00,APPROVED
MI: GRAND RAPIDS,01/10/2014 14:25:00,,1671.00,1216.00,356.00,225.00,112.00,144.00,79.00,38.00,APPROVED
MI: GRAND RAPIDS,01/10/2014 15:25:00,,1653.00,1197.00,346.00,226.00,112.00,144.00,80.00,36.00,APPROVED
MI: GRAND RAPIDS,01/10/2014 16:26:00,,1608.00,1152.00,335.00,217.00,105.00,137.00,77.00,35.00,APPROVED
MI: GRAND RAPIDS,01/10/2014 17:26:00,,1543.00,1079.00,320.00,208.00,103.00,129.00,74.00,34.00,APPROVED
MI: GRAND RAPIDS,01/10/2014 18:26:00,,1511.00,1033.00,309.00,190.00,99.00,122.00,70.00,35.00,APPROVED
MI: GRAND RAPIDS,01/10/2014 19:26:00,,1481.00,1018.00,300.00,183.00,96.00,120.00,70.00,33.00,APPROVED